Date String (YYYY-MM-DD hh:mm:ss) UTC,Instrument flags,Ambient pressure (hPa),Sample flow (lpm),Bypass flow (lpm),Sample temperature (°C),Ambient temperature (°C),ASC tube jacket temperature (°C),LED temperature (°C),Box temperature (°C),Sample RH (%),Span deviation,Mass concentration (μg/m³),Mass concentration (μg/m³),Mass concentration (μg/m³)
DateTimeUTC,F1_M11,P_M11,Q1_M11,Q2_M11,T1_M11,T2_M11,T3_M11,T4_M11,T5_M11,U1_M11,ZSPAN_M11,X0_M11,X2_M11,X1_M11
2022-07-31 09:00:00,,0829.2,5.00,0.00,29.6,27.9,00.0,38.4,31.4,23.4,0000.0,0012.19,0005.08,0004.67
2022-07-31 09:01:00,,0829.3,4.99,0.00,29.6,28.0,00.0,38.4,31.5,23.4,0000.0,0012.29,0005.12,0004.67
2022-07-31 09:02:00,,0829.3,5.00,0.00,29.6,28.2,00.0,38.4,31.5,23.4,0000.0,0011.61,0005.12,0004.67
2022-07-31 09:03:00,,0829.2,5.01,0.00,29.6,28.3,00.0,38.5,31.5,23.4,0000.0,0010.60,0005.13,0004.67
2022-07-31 09:04:00,,0829.3,4.99,0.00,29.7,28.4,00.0,38.5,31.6,23.2,0000.0,0009.98,0005.13,0004.67
2022-07-31 09:05:00,,0829.2,5.01,0.00,29.7,28.5,00.0,38.5,31.6,22.9,0000.0,0010.13,0005.11,0004.66
2022-07-31 09:06:00,,0829.3,5.01,0.00,29.7,28.5,00.0,38.5,31.7,22.8,0000.0,0009.65,0005.10,0004.66
2022-07-31 09:07:00,,0829.3,4.99,0.00,29.7,28.6,00.0,38.5,31.7,22.7,0000.0,0009.16,0005.07,0004.65
2022-07-31 09:08:00,,0829.3,5.01,0.00,29.7,28.7,00.0,38.5,31.7,22.5,0000.0,0009.12,0005.06,0004.63
2022-07-31 09:09:00,,0829.3,4.99,0.00,29.8,28.8,00.0,38.5,31.7,22.9,0000.0,0009.16,0005.07,0004.63
2022-07-31 09:10:00,,0829.2,5.01,0.00,29.8,28.8,00.0,38.5,31.7,22.5,0000.0,0008.85,0005.06,0004.63
2022-07-31 09:11:00,,0829.3,4.98,0.00,29.8,28.9,00.0,38.6,31.7,22.7,0000.0,0008.77,0005.06,0004.64
2022-07-31 09:12:00,,0829.3,5.01,0.00,29.8,28.8,00.0,38.6,31.8,22.7,0000.0,0008.79,0005.03,0004.64
2022-07-31 09:13:00,,0829.2,4.99,0.00,29.8,28.2,00.0,38.5,31.7,22.7,0000.0,0009.22,0005.07,0004.66
2022-07-31 09:14:00,,0829.2,5.00,0.00,29.8,27.7,00.0,38.5,31.5,22.7,0000.0,0009.61,0005.12,0004.68
2022-07-31 09:15:00,,0829.2,4.99,0.00,29.7,27.5,00.0,38.5,31.4,22.8,0000.0,0010.32,0005.16,0004.69
2022-07-31 09:16:00,,0829.3,5.00,0.00,29.7,27.6,00.0,38.5,31.4,22.9,0000.0,0010.63,0005.20,0004.72
2022-07-31 09:17:00,,0829.2,5.00,0.00,29.6,27.7,00.0,38.5,31.4,22.9,0000.0,0010.54,0005.24,0004.73
2022-07-31 09:18:00,,0829.2,4.99,0.00,29.6,27.8,00.0,38.5,31.4,22.7,0000.0,0010.67,0005.28,0004.74
2022-07-31 09:19:00,,0829.2,5.00,0.00,29.6,27.9,00.0,38.5,31.5,22.5,0000.0,0010.74,0005.30,0004.75
2022-07-31 09:20:00,,0829.2,5.01,0.00,29.6,28.1,00.0,38.5,31.5,22.4,0000.0,0010.85,0005.31,0004.76
2022-07-31 09:21:00,,0829.2,5.00,0.00,29.6,28.2,00.0,38.5,31.5,22.3,0000.0,0010.94,0005.35,0004.78
2022-07-31 09:22:00,,0829.1,4.99,0.00,29.6,28.3,00.0,38.5,31.5,22.2,0000.0,0010.95,0005.35,0004.79
2022-07-31 09:23:00,,0829.1,5.00,0.00,29.7,28.4,00.0,38.5,31.6,22.1,0000.0,0010.90,0005.37,0004.79
2022-07-31 09:24:00,,0829.1,5.01,0.00,29.7,28.5,00.0,38.5,31.6,22.0,0000.0,0010.66,0005.32,0004.79
2022-07-31 09:25:00,,0829.1,4.99,0.00,29.7,28.6,00.0,38.5,31.7,21.9,0000.0,0010.08,0005.26,0004.78
2022-07-31 09:26:00,,0829.1,5.01,0.00,29.7,28.6,00.0,38.5,31.7,21.8,0000.0,0009.29,0005.20,0004.77
2022-07-31 09:27:00,,0829.1,4.99,0.00,29.8,28.7,00.0,38.5,31.7,21.7,0000.0,0008.39,0005.21,0004.77
2022-07-31 09:28:00,,0829.1,5.01,0.00,29.8,28.8,00.0,38.5,31.8,21.7,0000.0,0008.31,0005.20,0004.78
2022-07-31 09:29:00,,0829.2,4.99,0.00,29.8,28.8,00.0,38.6,31.8,21.6,0000.0,0008.28,0005.19,0004.79
2022-07-31 09:30:00,,0829.2,5.01,0.00,29.8,28.9,00.0,38.6,31.8,21.5,0000.0,0008.19,0005.17,0004.79
2022-07-31 09:31:00,,0829.2,5.00,0.00,29.9,28.7,00.0,38.6,31.8,21.4,0000.0,0008.06,0005.17,0004.79
2022-07-31 09:32:00,,0829.2,5.00,0.00,29.8,28.0,00.0,38.5,31.6,21.4,0000.0,0008.64,0005.15,0004.79
2022-07-31 09:33:00,,0829.2,4.99,0.00,29.8,27.6,00.0,38.5,31.6,21.4,0000.0,0008.85,0005.16,0004.79
2022-07-31 09:34:00,,0829.2,5.01,0.00,29.7,27.6,00.0,38.5,31.5,21.6,0000.0,0008.82,0005.17,0004.79
2022-07-31 09:35:00,,0829.2,5.00,0.00,29.7,27.6,00.0,38.5,31.4,22.4,0000.0,0009.03,0005.17,0004.79
2022-07-31 09:36:00,,0829.2,5.02,0.00,29.7,27.7,00.0,38.5,31.4,22.3,0000.0,0009.06,0005.17,0004.80
2022-07-31 09:37:00,,0829.2,5.00,0.00,29.6,27.9,00.0,38.5,31.5,22.3,0000.0,0009.27,0005.19,0004.80
2022-07-31 09:38:00,,0829.2,4.99,0.00,29.6,28.0,00.0,38.5,31.5,22.2,0000.0,0009.33,0005.18,0004.80
2022-07-31 09:39:00,,0829.2,5.01,0.00,29.6,28.1,00.0,38.5,31.5,22.3,0000.0,0009.46,0005.18,0004.81
2022-07-31 09:40:00,,0829.2,5.00,0.00,29.6,28.2,00.0,38.5,31.5,22.6,0000.0,0009.74,0005.19,0004.82
2022-07-31 09:41:00,,0829.2,5.00,0.00,29.7,28.3,00.0,38.5,31.6,22.7,0000.0,0010.13,0005.22,0004.83
2022-07-31 09:42:00,,0829.2,5.00,0.00,29.7,28.4,00.0,38.5,31.6,22.5,0000.0,0010.39,0005.22,0004.83
2022-07-31 09:43:00,,0829.2,5.01,0.00,29.7,28.5,00.0,38.5,31.6,22.2,0000.0,0009.96,0005.22,0004.85
2022-07-31 09:44:00,,0829.2,4.99,0.00,29.7,28.6,00.0,38.5,31.7,22.2,0000.0,0010.74,0005.24,0004.86
2022-07-31 09:45:00,,0829.1,5.01,0.00,29.7,28.6,00.0,38.5,31.7,22.1,0000.0,0011.15,0005.21,0004.86
2022-07-31 09:46:00,,0829.1,5.00,0.00,29.8,28.7,00.0,38.5,31.7,22.2,0000.0,0011.49,0005.25,0004.87
2022-07-31 09:47:00,,0829.0,5.01,0.00,29.8,28.7,00.0,38.6,31.7,22.2,0000.0,0011.72,0005.29,0004.88
2022-07-31 09:48:00,,0829.1,4.99,0.00,29.8,28.8,00.0,38.6,31.8,22.2,0000.0,0011.95,0005.29,0004.88
2022-07-31 09:49:00,,0829.1,5.00,0.00,29.8,28.8,00.0,38.6,31.8,22.2,0000.0,0012.42,0005.35,0004.89
2022-07-31 09:50:00,,0829.1,4.98,0.00,29.9,28.9,00.0,38.6,31.8,22.2,0000.0,0012.55,0005.39,0004.90
2022-07-31 09:51:00,,0829.1,5.01,0.00,29.9,28.9,00.0,38.6,31.8,22.1,0000.0,0013.14,0005.41,0004.90
2022-07-31 09:52:00,,0829.1,5.01,0.00,29.9,28.6,00.0,38.6,31.7,22.0,0000.0,0012.99,0005.46,0004.91
2022-07-31 09:53:00,,0829.0,5.00,0.00,29.9,27.9,00.0,38.6,31.6,22.1,0000.0,0013.76,0005.48,0004.91
2022-07-31 09:54:00,,0829.0,5.00,0.00,29.8,27.6,00.0,38.6,31.5,22.0,0000.0,0014.13,0005.48,0004.92
2022-07-31 09:55:00,,0829.0,5.01,0.00,29.7,27.6,00.0,38.5,31.4,22.2,0000.0,0013.45,0005.47,0004.91
2022-07-31 09:56:00,,0829.0,4.99,0.00,29.7,27.7,00.0,38.5,31.4,22.3,0000.0,0013.38,0005.52,0004.92
2022-07-31 09:57:00,,0829.0,5.00,0.00,29.7,27.8,00.0,38.5,31.4,22.3,0000.0,0013.75,0005.51,0004.93
2022-07-31 09:58:00,,0829.0,5.00,0.00,29.6,27.9,00.0,38.5,31.4,22.3,0000.0,0013.90,0005.52,0004.95
2022-07-31 09:59:00,,0829.0,5.01,0.00,29.6,28.0,00.0,38.5,31.5,22.2,0000.0,0013.57,0005.54,0004.95
